Regional Weather Roundup
Issued by NWS Sioux Falls, SD

Home | Current Version | Previous Version | Graphics & Text | Print | Product List | Glossary On
Versions: 1 2 3 4 5 6 7 8 9 10 11 12 13 14 15 16 17 18 19 20 21 22 23 24 25 26 27 28 29 30 31 32 33 34 35 36 37 38 39 40 41 42 43 44 45 46 47 48 49 50
000
ASUS43 KFSD 240910
RWRFSD

WEATHER ROUNDUP FOR SE SOUTH DAKOTA/SW MINNESOTA/NW IOWA
NATIONAL WEATHER SERVICE SIOUX FALLS SD
300 AM CST FRI NOV 24 2017

NOTE: "FAIR" INDICATES FEW OR NO CLOUDS BELOW 12,000 FEET WITH NO
SIGNIFICANT WEATHER AND OR OBSTRUCTIONS TO VISIBILITY.


SDZ038>040-050-052>070-241000-
SOUTHEAST SOUTH DAKOTA

CITY           SKY/WX    TMP DP  RH WIND       PRES   REMARKS
BROOKINGS      CLEAR     43  37  79 S6        29.48F
CHAMBERLAIN    CLEAR     45  38  77 W5        29.50S
HURON          CLEAR     39  35  86 SE5       29.44F
MADISON        FAIR      50  41  71 SW14      29.48F
MITCHELL       CLEAR     48  38  68 SW7       29.48F
SIOUX FALLS    CLEAR     41  37  86 CALM      29.50F
WINNER         FAIR      51  37  58 SW7       29.52F
YANKTON        CLEAR     51  41  68 SW10      29.51F
$$

MNZ071-072-080-081-089-090-097-098-241000-
SOUTHWEST MINNESOTA

CITY           SKY/WX    TMP DP  RH WIND       PRES   REMARKS
FAIRMONT       CLEAR     43  37  79 S14       29.53F
JACKSON        CLEAR     46  37  71 S10       29.53F
LUVERNE        CLEAR     36  32  87 S3        29.52F
MARSHALL       CLEAR     53  40  61 SW16      29.45F
MONTEVIDEO     CLEAR     46  37  71 W7        29.42F
PIPESTONE      CLEAR     43  37  81 CALM      29.49F
REDWOOD FALLS  CLEAR     47  37  68 SW16      29.45F
WINDOM         CLEAR     46  30  53 S9        29.51F
WORTHINGTON    CLEAR     49  39  68 SW16      29.51F
$$

IAZ001>003-012>014-020>022-031-032-NEZ013-014-SDZ071-241000-
NORTHWEST IOWA

CITY           SKY/WX    TMP DP  RH WIND       PRES   REMARKS
CHEROKEE       CLEAR     45  38  77 S8        29.57F
DENISON        CLEAR     48  39  71 S12       29.62F
ESTHERVILLE    CLEAR     48  40  73 SW16      29.53F
LE MARS        CLEAR     46  39  76 S6        29.55F
ORANGE CITY    CLEAR     46  43  87 S8        29.54F
SHELDON        CLEAR     46  39  76 S8        29.52F
SIOUX CITY     CLEAR     40  36  86 E9        29.56F
SPENCER        CLEAR     47  38  71 SW8       29.55F
STORM LAKE     CLEAR     48  39  71 SW15      29.57F
$$

ABBREVIATIONS USED IN REMARKS
   TC - TEMPERATURE IN CELSIUS
  WCI - WIND CHILL INDEX
   HX - HEAT INDEX
  VSB - VISIBILITY





USA.gov is the U.S. government's official web portal to all federal, state and local government web resources and services.